This demonstration page uses our WeatherBlox Daily Observations layout. Learn more.

Left ArrowRight Arrow

44.89941, -97.11507

Hourly Observations for June 10, 2021

Temp ( °F °C ) Dew Point ( °F °C ) Humidity (%) Winds ( mph kmh ) Pressure ( in mb ) Visibility ( mi km ) Precip ( " mm )
12:53 am 00:53 Clear 75 23.9 63 17.2 66 66 SE 5 7 29.88 1012 10 16 0.00 0.00
1:53 am 01:53 Clear 74 23.3 63 17.2 69 69 SE 7 11 29.88 1012 10 16 0.00 0.00
2:53 am 02:53 Clear 74 23.3 63 17.2 69 69 SSE 8 13 29.88 1012 10 16 0.00 0.00
3:53 am 03:53 Clear 72 22.2 63 17.2 73 73 SSE 6 9 29.88 1012 10 16 0.00 0.00
4:53 am 04:53 Clear 70 21.1 64 17.8 82 82 SSE 7 11 29.86 1011 10 16 0.00 0.00
5:53 am 05:53 Sunny 72 22.2 65 18.3 79 79 S 8 13 29.86 1011 10 16 0.00 0.00
6:53 am 06:53 Sunny 72 22.2 64 17.8 76 76 SE 7 11 29.87 1011 10 16 0.00 0.00
7:53 am 07:53 Sunny 77 25 66 18.9 69 69 S 8 13 29.87 1011 10 16 0.00 0.00
8:53 am 08:53 Sunny 81 27.2 67 19.4 62 62 S 8 13 29.86 1011 10 16 0.00 0.00
9:53 am 09:53 Sunny 85 29.4 67 19.4 55 55 SSW 8 13 29.85 1011 10 16 0.00 0.00
10:53 am 10:53 Sunny 89 31.7 68 20 50 50 SSW 14 22 29.83 1010 10 16 0.00 0.00
11:53 am 11:53 Sunny 92 33.3 67 19.4 44 44 SW 13 20 29.83 1010 10 16 0.00 0.00
12:53 pm 12:53 Mostly Sunny 92 33.3 65 18.3 41 41 SSW 13 20 29.82 1010 10 16 0.00 0.00
1:53 pm 13:53 Sunny 94 34.4 65 18.3 38 38 S 10 17 29.80 1009 10 16 0.00 0.00
2:53 pm 14:53 Sunny 93 33.9 62 16.7 36 36 S 13 20 29.78 1009 10 16 0.00 0.00
3:53 pm 15:53 Mostly Sunny 95 35 64 17.8 36 36 SSE 9 15 29.76 1008 10 16 0.00 0.00
4:53 pm 16:53 Sunny 95 35 62 16.7 34 34 S 12 19 29.74 1007 10 16 0.00 0.00
5:53 pm 17:53 Sunny 95 35 61 16.1 32 32 S 14 22 29.72 1006 10 16 0.00 0.00
6:53 pm 18:53 Sunny 94 34.4 59 15 31 31 SSE 16 26 29.70 1006 10 16 0.00 0.00
7:53 pm 19:53 Sunny 91 32.8 61 16.1 37 37 S 14 22 29.68 1005 10 16 0.00 0.00
8:53 pm 20:53 Sunny 88 31.1 60 15.6 39 39 SSE 9 15 29.68 1005 10 16 0.00 0.00
9:53 pm 21:53 Clear 86 30 61 16.1 43 43 SSE 12 19 29.67 1005 10 16 0.00 0.00
10:53 pm 22:53 Clear 84 28.9 61 16.1 46 46 SSE 12 19 29.67 1005 10 16 0.00 0.00
11:53 pm 23:53 Clear 82 27.8 62 16.7 51 51 SSE 9 15 29.67 1005 10 16 0.00 0.00

Powered by AerisWeather